Probability
0 0 0 1 2 1 0 0 0 0 0 0 0 0 0 0 1 2 5 7 8 12 20 26 29 27 23 20 17 15 13 11 9 7 6 6 4 1 0 0 0 0 0 0 0 0 0 0 0
0 0 1 2 2 1 0 0 0 0 0 0 0 0 0 0 2 4 7 9 12 18 23 26 30 29 25 22 19 16 14 12 9 7 6 6 4 2 0 0 0 0 0 0 0 0 0 0 0
0 1 3 3 2 0 0 0 0 0 0 0 0 0 0 0 2 5 9 13 18 25 26 27 30 31 28 26 22 18 15 12 9 7 6 6 4 2 1 1 2 1 0 0 0 0 0 0 0
1 2 3 2 1 0 0 0 0 0 0 0 0 1 1 1 3 8 13 19 25 29 29 30 31 31 30 28 23 19 16 12 9 7 6 6 4 3 3 3 3 2 0 0 0 0 0 0 0
1 2 2 1 0 0 0 0 0 0 0 0 1 2 3 5 10 16 20 25 30 32 33 35 35 33 31 29 24 20 16 12 9 8 7 6 4 3 3 3 2 1 0 0 0 0 0 0 0
1 1 2 1 0 0 0 0 0 0 0 0 1 2 4 9 19 25 26 28 32 34 35 38 39 37 34 30 24 19 14 11 9 9 8 7 6 4 2 1 1 0 0 0 0 0 0 0 0
1 1 1 0 0 0 0 0 0 0 0 0 1 3 5 11 22 29 29 31 33 34 37 40 41 39 36 30 23 17 13 11 10 9 9 8 6 4 2 0 0 0 0 0 0 0 0 0 0
1 2 1 0 0 0 0 0 0 0 0 0 1 3 6 12 23 31 32 34 35 35 37 42 42 38 33 27 20 16 13 11 10 9 8 6 5 3 2 0 0 0 0 0 0 0 0 0 0
1 1 1 0 0 0 0 0 0 0 0 1 3 5 8 15 25 32 33 33 34 34 36 38 37 32 26 21 16 14 12 10 9 8 6 4 3 2 1 0 0 0 0 0 0 0 0 0 0
0 0 0 0 0 0 0 0 0 0 0 2 6 10 13 20 28 32 32 31 31 32 32 33 31 27 23 18 14 12 11 9 7 6 4 3 2 1 0 0 0 0 0 0 0 0 0 0 0
0 0 0 0 0 0 0 0 0 0 0 2 8 14 17 22 27 30 30 29 29 30 29 28 27 25 21 17 13 10 9 7 6 4 2 1 1 0 0 0 0 0 0 0 0 0 0 0 0
0 0 0 0 0 0 0 0 0 0 0 2 8 14 17 21 25 28 27 26 26 27 26 24 22 21 19 15 11 8 7 6 5 3 1 0 0 0 0 0 0 0 0 0 0 0 0 0 0
0 0 0 0 0 0 0 0 0 0 0 2 6 11 15 18 23 26 26 25 24 24 22 19 17 17 15 12 9 7 6 5 4 2 0 0 0 0 0 0 0 0 0 0 0 0 0 0 0
0 0 0 0 0 0 0 0 0 0 0 2 4 7 11 16 21 25 26 25 24 21 18 15 13 12 11 9 8 7 5 3 3 2 0 0 0 0 0 0 0 0 0 0 0 0 0 0 0
0 0 0 0 0 0 0 0 0 0 0 1 2 4 7 12 19 23 24 23 22 20 15 12 11 10 9 7 6 5 3 2 2 2 0 0 0 0 0 0 0 0 0 0 0 0 0 0 0
0 0 0 0 0 0 0 0 0 0 0 0 1 2 4 8 13 18 20 20 19 17 14 12 12 11 8 6 5 3 2 1 1 1 0 0 0 0 0 0 0 0 0 0 0 0 0 0 0
0 0 0 0 0 0 0 0 0 0 0 0 0 1 2 4 7 10 15 18 17 16 14 13 12 11 8 5 5 4 2 1 0 0 0 0 0 0 0 0 0 0 0 0 0 0 0 0 0
0 0 0 0 0 0 0 0 0 0 0 0 0 0 1 3 3 5 10 15 16 15 14 13 12 10 7 6 5 4 3 1 0 0 0 0 0 0 0 0 0 0 0 0 0 0 0 0 0
0 0 0 0 0 0 0 0 0 0 0 0 0 1 1 2 2 4 8 12 15 15 14 13 12 10 8 5 4 3 2 1 0 0 0 0 0 0 0 0 0 0 0 0 0 0 0 0 0
0 0 0 0 0 0 0 0 0 0 0 0 0 1 2 3 3 5 8 11 14 14 14 13 11 9 7 5 3 1 1 0 0 0 0 0 0 0 0 0 0 0 0 0 0 0 0 0 0
0 0 0 0 0 0 0 0 0 0 0 0 0 1 2 2 3 4 7 10 12 12 11 11 9 8 7 6 4 2 1 0 0 0 0 0 0 0 0 1 2 1 1 1 0 0 0 0 0
0 0 0 0 0 0 0 0 0 0 0 0 0 0 1 1 1 3 6 9 10 9 8 8 7 6 6 5 5 4 2 1 0 0 0 0 0 0 1 2 2 2 2 1 0 0 0 0 0
0 0 0 0 0 0 0 0 0 0 0 0 0 0 0 0 1 2 5 8 8 7 6 6 5 4 4 4 4 4 2 1 0 0 0 0 0 1 2 2 1 1 1 1 0 0 0 0 0
0 0 0 0 0 0 0 0 0 0 0 0 0 0 0 0 1 2 5 8 8 7 6 6 4 3 3 3 3 3 1 0 0 0 0 0 0 1 2 2 1 0 0 0 0 0 0 0 0
0 0 0 0 0 0 0 0 0 0 0 0 0 0 0 0 0 1 4 8 9 7 6 6 4 3 3 3 3 2 1 0 0 0 0 0 0 0 1 1 1 0 0 0 0 0 0 0 0
0 0 0 0 0 0 0 0 0 0 0 0 0 0 0 0 0 1 3 6 8 7 6 6 4 2 3 3 3 3 1 0 0 0 0 0 0 0 0 0 0 0 0 0 0 0 0 0 0
0 0 0 0 0 0 0 0 0 0 0 0 0 0 0 0 0 0 1 4 7 7 6 6 4 3 3 3 3 3 2 0 0 0 0 0 0 0 0 0 0 0 0 0 0 0 0 0 0
0 0 0 0 0 0 0 0 0 0 0 0 0 0 0 0 0 0 1 3 6 6 6 6 5 4 3 3 3 3 2 0 0 0 0 0 0 0 0 0 0 0 0 0 0 0 0 0 0
0 0 0 0 0 0 0 0 0 0 0 0 0 0 0 0 0 0 1 3 4 5 6 6 4 3 3 3 3 3 2 1 0 0 0 0 0 0 0 0 0 0 0 0 0 0 0 0 0
0 0 0 0 0 0 0 0 0 0 0 0 0 0 0 0 0 0 1 2 4 5 6 6 4 3 3 3 3 3 2 1 0 0 0 0 0 0 0 0 0 0 0 0 0 0 0 0 0
Wind_Speed
4 2 2 3 4 2 5 7 4 3 3 2 1 4 7 5 4 4 3 9 12 12 12 14 15 16 16 16 15 15 15 14 14 14 13 13 13 12 12 12 12 12 12 11 11 11 11 11 10
1 1 3 4 4 4 6 7 6 7 5 3 2 3 5 3 2 6 5 10 14 13 11 12 16 16 16 16 16 15 15 14 14 13 13 12 12 12 12 12 12 12 11 11 11 10 10 10 10
1 1 3 3 5 8 7 6 9 7 3 1 2 3 4 4 3 4 6 13 13 11 10 12 16 16 16 16 15 15 14 14 13 13 13 12 12 11 11 11 11 11 11 10 10 10 9 9 9
1 2 2 3 8 8 6 4 4 4 2 1 3 4 2 1 3 5 11 13 13 10 9 12 16 16 16 16 15 15 14 14 13 13 13 12 12 11 11 11 11 10 10 10 9 9 9 9 9
2 2 3 5 9 6 6 6 3 3 2 1 4 5 1 4 5 11 12 13 13 10 9 12 16 16 16 15 15 14 14 13 13 12 12 12 12 11 11 10 10 10 9 9 8 8 8 8 8
1 2 4 8 8 5 6 5 2 2 2 1 4 5 1 1 7 10 11 11 11 11 10 11 15 15 15 15 15 14 13 13 13 12 12 12 11 11 10 10 9 9 9 8 8 8 7 8 8
3 4 6 6 5 6 6 4 4 3 3 3 5 7 3 2 5 9 10 11 10 10 9 8 9 11 14 15 14 13 12 12 12 11 11 11 10 10 10 9 9 9 8 8 7 7 7 8 8
3 3 5 5 6 6 4 3 3 4 4 1 4 9 7 6 7 9 10 10 9 8 8 8 7 7 8 9 12 12 12 12 11 11 11 10 9 9 9 8 8 8 8 7 7 7 7 8 8
2 3 7 7 7 5 2 2 2 1 2 2 2 3 6 11 12 12 10 8 8 8 7 7 7 7 7 7 9 10 10 10 10 9 11 9 5 5 5 6 7 7 7 6 6 6 7 7 7
4 7 10 4 3 3 2 3 2 1 2 2 3 4 9 12 13 14 13 12 10 10 8 7 8 7 7 6 6 5 5 5 5 5 5 4 4 3 4 6 7 7 6 6 6 7 7 5 3
5 8 5 3 2 1 1 2 1 4 2 4 7 9 11 11 12 12 12 11 11 10 8 8 8 7 7 6 5 3 3 4 4 5 5 4 4 3 3 2 3 3 4 3 4 4 3 3 2
5 6 5 4 4 3 2 1 1 2 4 4 8 12 12 12 11 11 11 10 9 9 8 8 8 7 7 6 5 4 4 4 3 4 5 4 3 3 2 2 2 2 1 2 2 2 2 3 3
6 5 5 4 5 3 2 1 0 1 1 5 8 9 10 9 9 7 7 8 8 8 7 7 8 8 7 6 5 5 5 4 4 4 4 5 4 3 3 2 2 2 1 2 2 2 2 3 3
4 5 5 4 5 3 2 3 1 2 2 6 8 7 7 7 8 7 7 8 8 8 7 7 8 8 7 6 5 5 5 5 4 4 4 5 4 4 3 3 2 1 1 1 2 2 2 2 2
2 3 4 4 3 2 1 3 3 3 3 5 6 6 5 5 6 8 8 8 8 8 7 7 8 8 8 7 6 5 5 5 4 4 4 5 5 4 4 3 2 1 1 2 2 2 2 2 2
1 2 4 4 3 2 3 6 4 2 5 4 4 5 4 4 5 6 7 6 6 7 7 7 7 8 7 6 6 4 4 5 4 3 4 5 5 5 4 3 2 1 2 2 2 2 2 2 2
1 3 5 3 3 1 3 5 4 2 4 4 4 4 4 2 2 4 5 6 7 7 7 6 6 7 7 6 5 5 4 4 4 4 3 4 5 5 4 3 2 2 2 2 2 2 2 2 2
4 3 3 5 2 2 3 4 3 1 4 4 3 3 4 4 4 4 5 6 6 6 6 6 6 6 6 5 4 4 4 3 3 3 4 5 4 5 4 3 3 3 2 2 2 2 2 1 1
3 3 3 4 2 2 5 5 3 1 2 3 2 3 4 4 3 3 4 5 5 5 5 5 6 6 6 5 5 4 4 3 3 3 4 5 5 5 5 3 3 3 3 2 2 2 2 2 2
2 3 3 3 4 2 4 5 2 2 3 4 4 3 3 2 1 2 3 4 5 6 6 6 6 6 6 5 4 3 3 2 3 2 3 4 5 5 4 4 3 3 3 3 2 2 2 1 2
4 5 5 3 3 1 2 2 3 2 1 1 2 3 3 4 4 4 4 4 5 6 6 6 6 5 5 5 4 4 3 3 2 2 2 3 4 4 4 5 4 3 3 3 2 2 3 2 1
5 4 4 4 1 2 3 3 5 4 2 2 2 1 2 2 2 3 3 4 5 5 4 5 5 5 5 6 7 8 6 4 4 3 3 3 4 4 4 4 4 4 3 3 3 2 2 3 1
4 3 3 3 2 1 1 3 5 1 3 5 4 3 2 2 2 3 3 4 3 3 4 4 5 5 4 5 7 7 5 3 3 3 4 3 3 3 4 4 4 4 3 3 3 2 2 2 2
1 2 3 2 2 2 4 4 5 4 6 5 5 4 3 2 2 1 1 1 1 1 2 3 4 4 5 5 5 6 7 6 6 5 5 3 2 2 3 4 3 3 3 3 3 2 3 2 2
2 4 2 1 1 5 2 4 6 4 3 5 5 4 3 2 2 1 1 1 1 1 2 2 4 4 4 5 5 6 7 7 8 7 6 5 3 2 3 4 4 3 3 3 3 2 2 2 2
2 4 4 4 4 2 1 5 4 2 1 0 1 1 1 1 2 2 2 2 2 2 2 2 3 3 4 5 4 4 5 5 4 5 5 5 4 4 4 4 4 4 3 3 3 2 2 2 2
2 1 2 3 1 1 3 3 4 3 4 3 3 3 1 1 1 1 1 1 2 2 2 3 3 3 3 4 4 4 5 5 5 5 4 3 3 3 4 4 4 4 4 3 3 2 2 2 2
1 2 3 3 2 2 3 3 3 2 2 3 3 2 2 2 2 1 1 1 1 1 1 1 2 3 3 3 4 4 4 5 5 5 5 4 4 4 5 4 4 4 3 3 3 2 2 2 1
2 1 2 1 2 3 2 4 2 2 1 1 1 1 2 2 2 2 2 1 1 0 0 0 0 1 1 2 2 3 4 4 5 5 5 5 4 5 5 5 5 4 4 3 3 2 3 2 1
1 1 2 2 2 1 2 4 3 1 1 1 2 3 3 3 3 3 3 2 2 1 1 0 0 1 1 1 2 3 4 4 5 5 5 5 5 5 5 5 4 4 4 4 4 3 3 3 2
Wind_Direction
303 3 69 66 69 83 227 236 234 233 209 215 176 120 129 134 154 167 132 135 134 142 148 145 143 138 135 131 127 125 122 119 116 114 111 109 106 105 103 100 96 93 89 85 82 79 76 73 71
5 55 66 75 126 196 241 233 228 229 204 171 126 101 96 103 101 116 129 142 139 142 145 145 143 139 135 132 129 127 125 122 119 116 114 112 109 107 104 101 97 93 89 86 82 77 74 70 66
340 166 112 115 178 199 220 222 223 239 241 186 98 71 114 134 134 140 148 141 136 139 142 144 142 139 137 134 131 129 127 125 122 120 118 115 112 109 106 102 99 96 91 87 82 77 73 68 61
94 82 84 160 217 221 217 230 204 213 254 164 125 84 70 28 166 143 136 136 134 136 139 144 142 140 138 135 132 131 129 127 125 124 121 118 114 110 107 103 102 100 95 90 85 79 72 65 60
82 115 165 218 229 236 239 253 233 205 205 190 133 118 65 341 113 125 133 136 136 136 139 144 142 141 139 136 135 133 131 129 127 125 124 121 116 113 110 104 102 99 96 92 87 81 74 68 61
122 132 180 216 228 238 247 247 241 229 229 172 127 122 135 60 123 132 134 134 136 137 140 143 143 142 140 138 137 135 133 131 129 127 125 123 119 116 113 108 103 99 96 92 85 80 74 68 62
169 169 205 211 222 234 238 231 208 206 220 205 144 121 145 175 144 134 131 130 132 136 137 140 143 143 141 138 137 135 134 131 128 125 122 119 118 116 113 110 105 100 96 92 86 79 72 66 61
175 167 211 212 208 229 229 215 217 192 213 201 125 139 170 186 144 127 124 124 128 134 137 138 136 136 138 138 136 135 133 130 126 121 116 111 109 109 109 105 103 98 93 88 82 76 70 61 57
158 196 215 208 201 222 222 200 266 235 127 47 52 160 163 143 133 128 127 127 132 137 139 140 138 137 137 137 138 134 131 127 123 118 115 108 97 93 97 103 103 100 93 87 81 74 65 56 52
181 211 221 212 198 205 225 210 207 96 77 56 50 69 119 136 140 144 149 152 152 153 151 146 143 144 141 138 131 128 124 123 117 116 113 105 102 98 97 94 95 93 85 78 74 67 59 50 40
201 217 230 260 268 245 244 263 218 144 177 183 158 144 141 146 148 154 158 160 160 157 156 155 150 148 145 141 138 131 125 122 117 119 116 109 98 91 83 76 68 63 63 56 51 46 42 44 45
225 240 240 267 293 301 281 277 355 175 201 180 162 152 150 156 160 163 163 161 156 155 159 160 154 149 149 146 145 141 139 135 132 131 127 121 114 104 101 89 76 63 59 61 50 50 42 46 48
240 250 256 262 285 282 295 284 186 273 207 127 134 143 152 161 161 158 154 154 154 157 161 162 157 155 152 148 150 147 147 144 141 137 135 131 128 128 118 107 91 79 71 70 64 61 57 54 49
239 245 260 266 268 277 243 273 147 240 129 121 136 152 161 165 159 148 150 158 162 164 165 162 159 158 151 152 153 152 149 145 141 140 141 135 132 134 128 116 105 92 87 82 82 75 70 58 61
245 266 274 257 240 250 143 291 226 198 139 137 151 160 160 171 165 164 168 166 166 165 164 163 162 154 152 152 154 149 147 143 142 143 141 137 132 132 129 123 115 105 88 81 75 63 63 58 54
194 215 237 237 204 238 152 237 249 185 156 162 160 159 160 179 180 172 166 160 159 155 160 167 162 156 155 154 151 145 143 141 141 138 138 137 135 132 127 125 124 112 96 87 87 74 64 51 50
143 206 225 241 204 191 178 233 262 210 161 164 166 164 168 175 191 182 171 165 164 161 158 162 157 157 155 149 145 141 139 140 141 137 139 140 137 134 130 128 123 113 98 88 88 71 82 64 40
203 198 212 213 216 181 204 236 264 195 159 174 184 181 185 192 212 194 177 166 160 157 153 149 149 152 145 137 125 123 125 133 136 141 145 143 141 136 129 125 119 115 105 86 82 84 62 71 50
201 195 221 244 236 192 214 234 241 237 178 177 187 198 201 211 230 193 170 158 148 145 145 149 149 153 148 148 152 151 155 153 146 148 148 146 142 140 134 130 127 124 122 120 111 97 75 46 38
223 209 238 274 279 229 219 241 247 222 211 192 186 203 215 230 254 189 161 154 159 162 161 158 158 161 163 163 162 151 141 146 148 145 144 146 143 145 142 142 142 137 123 109 104 103 94 54 40
242 212 220 249 312 294 148 273 256 258 259 255 193 185 193 195 202 194 172 171 166 169 171 171 171 166 162 148 133 117 94 85 105 143 155 159 152 150 150 151 145 142 139 142 138 131 120 120 23
246 228 228 239 238 247 163 226 257 228 240 256 257 215 205 210 191 183 172 177 183 184 177 171 170 164 159 153 156 157 161 167 180 172 165 157 155 154 154 151 148 147 145 148 153 135 126 130 127
238 244 230 236 197 242 192 179 271 211 216 231 228 214 201 198 180 176 177 178 178 177 177 176 170 166 162 167 168 166 165 159 144 142 147 152 156 160 157 153 149 151 151 152 146 133 124 131 143
214 42 35 35 81 235 219 181 254 221 209 212 222 219 204 195 179 161 173 136 121 128 154 170 172 176 171 171 173 173 166 156 151 158 164 166 161 166 165 154 154 158 156 159 159 150 141 137 128
89 105 78 32 220 244 200 183 240 236 217 203 205 213 205 182 172 151 129 136 154 156 162 168 178 187 181 176 179 180 175 169 171 172 174 169 167 176 184 165 161 162 163 156 148 142 143 142 138
184 143 155 179 203 261 199 216 244 270 271 136 145 179 151 169 186 181 190 192 196 193 184 183 191 194 186 182 186 181 175 173 176 177 174 178 183 183 174 166 161 158 156 148 143 138 148 134 138
133 175 180 139 139 193 238 276 298 5 18 23 40 49 30 307 257 238 231 220 210 203 204 198 193 197 196 187 181 179 176 172 172 171 171 175 174 169 163 158 157 159 156 151 147 144 148 133 137
129 143 97 116 151 223 251 249 249 298 328 358 6 2 343 352 355 359 336 277 245 226 234 195 185 189 199 189 187 183 180 176 168 161 168 168 167 163 158 155 155 154 152 149 143 146 142 125 127
35 73 91 128 170 173 221 261 269 246 254 257 313 335 347 350 346 338 328 320 303 321 324 95 129 163 188 192 191 181 179 173 164 166 171 166 161 162 162 159 158 156 153 151 146 150 141 133 124
117 155 140 156 248 204 186 269 337 347 14 48 17 8 360 0 353 353 356 8 13 2 343 307 260 196 213 204 191 188 176 167 166 169 165 159 159 163 160 155 154 160 157 156 157 162 155 154 157